Ortonville, MN

2:16 PM CST on December 08, 2016 (GMT -0600)
Ortonville Municipal-Martinson

Weather History for KVVV - May, 2013

Change the Weather History Date:

Tuesday, May 14, 2013

  Actual Average (KAQP) Record (KAQP)
Temperature  
Mean Temperature 72 °F -  
Max Temperature 91 °F 65 °F 98 °F (2001)
Min Temperature 53 °F 43 °F 28 °F (2004)
Cooling Degree Days 7    
Growing Degree Days 22 (Base 50)    
Moisture  
Dew Point 40 °F    
Average Humidity 36    
Maximum Humidity 63    
Minimum Humidity 12    
Precipitation  
Precipitation 0.00 in - - ()
Sea Level Pressure  
Sea Level Pressure 29.63 in    
Wind  
Wind Speed 9 mph (WNW)    
Max Wind Speed 24 mph    
Max Gust Speed 36 mph    
Visibility 10 miles    
Events Rain    
Averages and records for this station are not official NWS values.
T = Trace of Precipitation, MM = Missing Value Source: NWS Daily Summary

Daily Weather History Graph

Daily Weather History Graph

Search for Another Location

Airport or City:

Trip Planner

Search our weather history database for the weather conditions in past years. The results will help you decide how hot, cold, wet, or windy it might be!

Date:

Astronomy

May. 14, 2013 Rise Set
Actual Time 5:56 AM CDT 8:48 PM CDT
Civil Twilight 5:22 AM CDT 9:22 PM CDT
Nautical Twilight 4:38 AM CDT 10:06 PM CDT
Astronomical Twilight 3:47 AM CDT 10:58 PM CDT
Moon 9:37 AM CDT (5/14) No Moon Set
Length of Visible Light 16h 00m
Length of Day
14h 51m
Waxing Crescent, 19% of the Moon is Illuminated
May 14
Waxing Crescent
May 17
First Quarter
May 24
Full
May 31
Last Quarter
Jun 8
New

Hourly Weather History & Observations

Time (CDT) Temp. Dew Point Humidity Pressure Visibility Wind Dir Wind Speed Gust Speed Precip Events Conditions
12:14 AM 64.4 °F 42.8 °F 45% 29.69 in 10.0 mi West 5.8 mph - N/A   Clear
12:34 AM 64.4 °F 41.0 °F 42% 29.69 in 10.0 mi West 6.9 mph - N/A   Clear
12:53 AM 64.4 °F 41.0 °F 42% 29.69 in 10.0 mi West 4.6 mph - N/A   Clear
1:14 AM 64.4 °F 41.0 °F 42% 29.68 in 10.0 mi WSW 3.5 mph - N/A   Clear
1:34 AM 64.4 °F 41.0 °F 42% 29.68 in 10.0 mi WSW 4.6 mph - N/A   Clear
1:54 AM 62.6 °F 42.8 °F 48% 29.68 in 10.0 mi Calm Calm - N/A   Clear
2:14 AM 62.6 °F 41.0 °F 45% 29.67 in 10.0 mi Calm Calm - N/A   Clear
2:34 AM 60.8 °F 41.0 °F 48% 29.67 in 10.0 mi Calm Calm - N/A   Clear
2:54 AM 60.8 °F 41.0 °F 48% 29.66 in 10.0 mi SW 6.9 mph - N/A   Clear
3:14 AM 60.8 °F 42.8 °F 52% 29.66 in 10.0 mi SW 4.6 mph - N/A   Clear
3:34 AM 60.8 °F 41.0 °F 48% 29.65 in 10.0 mi SSW 3.5 mph - N/A   Clear
3:54 AM 57.2 °F 41.0 °F 55% 29.65 in 10.0 mi SSE 4.6 mph - N/A   Clear
4:14 AM 55.4 °F 41.0 °F 58% 29.62 in 10.0 mi SSE 5.8 mph - N/A   Clear
4:33 AM 53.6 °F 41.0 °F 62% 29.61 in 10.0 mi SE 6.9 mph - N/A   Clear
4:54 AM 53.6 °F 41.0 °F 62% 29.61 in 10.0 mi SSE 4.6 mph - N/A   Clear
5:14 AM 55.4 °F 42.8 °F 63% 29.61 in 10.0 mi South 5.8 mph - N/A   Clear
5:33 AM 55.4 °F 42.8 °F 63% 29.61 in 10.0 mi Calm Calm - N/A   Clear
5:54 AM 55.4 °F 42.8 °F 63% 29.60 in 10.0 mi East 6.9 mph - N/A   Clear
6:14 AM 57.2 °F 42.8 °F 59% 29.60 in 10.0 mi ESE 6.9 mph - N/A   Clear
6:34 AM 57.2 °F 42.8 °F 59% 29.58 in 10.0 mi ESE 9.2 mph - N/A   Clear
6:53 AM 59.0 °F 42.8 °F 55% 29.58 in 10.0 mi SE 9.2 mph - N/A   Clear
7:14 AM 60.8 °F 42.8 °F 52% 29.57 in 10.0 mi SE 9.2 mph - N/A   Clear
7:34 AM 60.8 °F 42.8 °F 52% 29.58 in 10.0 mi SE 5.8 mph - N/A   Clear
7:54 AM 60.8 °F 44.6 °F 55% 29.55 in 10.0 mi ESE 9.2 mph 17.3 mph N/A Rain Light Rain
8:14 AM 64.4 °F 44.6 °F 49% 29.58 in 10.0 mi NE 11.5 mph - N/A   Clear
8:33 AM 64.4 °F 44.6 °F 49% 29.57 in 10.0 mi ENE 8.1 mph - N/A   Clear
8:54 AM 64.4 °F 44.6 °F 49% 29.55 in 10.0 mi ENE 9.2 mph - N/A   Clear
9:14 AM 64.4 °F 46.4 °F 52% 29.55 in 10.0 mi East 12.7 mph - N/A   Clear
9:34 AM 71.6 °F 42.8 °F 35% 29.52 in 10.0 mi East 13.8 mph - N/A   Clear
9:54 AM 75.2 °F 44.6 °F 34% 29.53 in 10.0 mi SE 9.2 mph - N/A   Clear
10:14 AM 75.2 °F 44.6 °F 34% 29.52 in 10.0 mi SE 10.4 mph - N/A   Clear
10:34 AM 75.2 °F 46.4 °F 36% 29.52 in 10.0 mi SE 9.2 mph - N/A   Clear
10:54 AM 78.8 °F 46.4 °F 32% 29.52 in 10.0 mi SSE 5.8 mph - N/A   Clear
11:14 AM 82.4 °F 46.4 °F 28% 29.53 in 10.0 mi WSW 3.5 mph - N/A   Clear
11:33 AM 84.2 °F 44.6 °F 25% 29.54 in 10.0 mi West 8.1 mph - N/A   Clear
11:54 AM 84.2 °F 46.4 °F 27% 29.54 in 10.0 mi NNW 9.2 mph - N/A   Clear
12:14 PM 84.2 °F 46.4 °F 27% 29.55 in 10.0 mi NW 10.4 mph - N/A   Scattered Clouds
12:33 PM 87.8 °F 44.6 °F 22% 29.56 in 10.0 mi NW 15.0 mph 24.2 mph N/A   Clear
12:54 PM 87.8 °F 44.6 °F 22% 29.55 in 10.0 mi WNW 13.8 mph 19.6 mph N/A   Clear
1:14 PM 87.8 °F 44.6 °F 22% 29.56 in 10.0 mi WNW 13.8 mph 18.4 mph N/A   Clear
1:34 PM 89.6 °F 44.6 °F 21% 29.57 in 10.0 mi NW 13.8 mph 20.7 mph N/A   Clear
1:53 PM 89.6 °F 42.8 °F 20% 29.57 in 10.0 mi NW 16.1 mph 24.2 mph N/A   Clear
2:14 PM 91.4 °F 37.4 °F 15% 29.58 in 10.0 mi NW 21.9 mph 28.8 mph N/A   Clear
2:33 PM 91.4 °F 39.2 °F 16% 29.58 in 10.0 mi NW 21.9 mph 29.9 mph N/A   Clear
2:54 PM 89.6 °F 39.2 °F 17% 29.58 in 10.0 mi WNW 21.9 mph 33.4 mph N/A   Clear
3:14 PM 89.6 °F 33.8 °F 14% 29.59 in 10.0 mi NW 19.6 mph 33.4 mph N/A   Clear
3:33 PM 89.6 °F 32.0 °F 13% 29.60 in 10.0 mi NW 24.2 mph 35.7 mph N/A   Clear
3:54 PM 87.8 °F 32.0 °F 14% 29.61 in 10.0 mi NW 24.2 mph 34.5 mph N/A   Clear
4:14 PM 86.0 °F 32.0 °F 14% 29.62 in 10.0 mi WNW 20.7 mph 28.8 mph N/A   Clear
4:34 PM 84.2 °F 28.4 °F 13% 29.63 in 10.0 mi WNW 20.7 mph 32.2 mph N/A   Clear
4:54 PM 84.2 °F 26.6 °F 12% 29.63 in 10.0 mi WNW 24.2 mph 29.9 mph N/A   Clear
5:13 PM 84.2 °F 26.6 °F 12% 29.63 in 10.0 mi WNW 21.9 mph 31.1 mph N/A   Clear
5:34 PM 84.2 °F 26.6 °F 12% 29.64 in 10.0 mi WNW 21.9 mph 32.2 mph N/A   Clear
5:53 PM 84.2 °F 26.6 °F 12% 29.63 in 10.0 mi WNW 23.0 mph 31.1 mph N/A   Clear
6:14 PM 82.4 °F 26.6 °F 13% 29.64 in 10.0 mi NW 23.0 mph 31.1 mph N/A   Clear
6:34 PM 82.4 °F 28.4 °F 14% 29.64 in 10.0 mi NW 18.4 mph 27.6 mph N/A   Clear
6:54 PM 80.6 °F 30.2 °F 16% 29.65 in 10.0 mi NW 19.6 mph 27.6 mph N/A   Clear
7:14 PM 78.8 °F 33.8 °F 20% 29.67 in 10.0 mi NW 17.3 mph 27.6 mph N/A   Clear
7:34 PM 78.8 °F 35.6 °F 21% 29.68 in 10.0 mi NW 21.9 mph 29.9 mph N/A   Clear
7:54 PM 75.2 °F 39.2 °F 27% 29.69 in 10.0 mi NW 20.7 mph 31.1 mph N/A   Clear
8:14 PM 73.4 °F 39.2 °F 29% 29.69 in 10.0 mi NW 21.9 mph 29.9 mph N/A   Clear
8:33 PM 71.6 °F 41.0 °F 33% 29.71 in 10.0 mi NW 19.6 mph 26.5 mph N/A   Clear
8:54 PM 69.8 °F 42.8 °F 38% 29.73 in 10.0 mi NNW 20.7 mph 29.9 mph N/A   Clear
9:14 PM 69.8 °F 42.8 °F 38% 29.74 in 10.0 mi NNW 15.0 mph 20.7 mph N/A   Clear
9:33 PM 68.0 °F 42.8 °F 40% 29.75 in 10.0 mi NNW 15.0 mph 26.5 mph N/A   Clear
9:54 PM 66.2 °F 41.0 °F 40% 29.77 in 10.0 mi NNW 18.4 mph 25.3 mph N/A   Clear
10:14 PM 66.2 °F 41.0 °F 40% 29.78 in 10.0 mi NNW 15.0 mph 24.2 mph N/A   Clear
10:33 PM 64.4 °F 41.0 °F 42% 29.79 in 10.0 mi NNW 18.4 mph 25.3 mph N/A   Clear
10:54 PM 64.4 °F 42.8 °F 45% 29.79 in 10.0 mi NW 13.8 mph 20.7 mph N/A   Clear
11:14 PM 62.6 °F 42.8 °F 48% 29.80 in 10.0 mi NNW 12.7 mph 17.3 mph N/A   Clear
11:33 PM 62.6 °F 42.8 °F 48% 29.81 in 10.0 mi NW 8.1 mph - N/A   Clear
11:54 PM 60.8 °F 42.8 °F 52% 29.82 in 10.0 mi NW 8.1 mph - N/A   Clear